This is the latest recevied weather packets stored in our database for station/object WV5G-13. If no packets are shown the sender has not sent any weather packets the latest 10 day(s).
| Time | Temp. | Humidity | Pressure | Rain* | Wind** | Luminosity | Snow |
|---|---|---|---|---|---|---|---|
| 1778123053 | 10.56° C | 56% | 1017.2 hPa | 0 mm | - | 0 W/m² | - |
| 1778122750 | 10.56° C | 56% | 1017.4 hPa | 0 mm | - | 0 W/m² | - |
| 1778122447 | 10.56° C | 55% | 1017.4 hPa | 0 mm | - | 0 W/m² | - |
| 1778122145 | 10.56° C | 55% | 1017.5 hPa | 0 mm | - | 0 W/m² | - |
| 1778121842 | 11.11° C | 55% | 1017 hPa | 0 mm | - | 0 W/m² | - |
| 1778121538 | 11.11° C | 54% | 1016.9 hPa | 0 mm | - | 0 W/m² | - |
| 1778121234 | 11.11° C | 54% | 1016.8 hPa | 0 mm | - | 0 W/m² | - |
| 1778120932 | 11.11° C | 53% | 1016.4 hPa | 0 mm | - | 0 W/m² | - |
| 1778120628 | 11.67° C | 53% | 1016.1 hPa | 0 mm | - | 0 W/m² | - |
| 1778120324 | 11.67° C | 52% | 1016.5 hPa | 0 mm | - | 0 W/m² | - |
| 1778120019 | 12.22° C | 52% | 1016.1 hPa | 0 mm | - | 0 W/m² | - |
| 1778119718 | 12.22° C | 52% | 1016.1 hPa | 0 mm | - | 0 W/m² | - |
| 1778119414 | 12.22° C | 53% | 1015.8 hPa | 0 mm | - | 0 W/m² | - |
| 1778119111 | 11.67° C | 54% | 1015.7 hPa | 0 mm | - | 0 W/m² | - |
| 1778118809 | 11.67° C | 54% | 1015.2 hPa | 0 mm | - | 0 W/m² | - |
| 1778118506 | 11.67° C | 54% | 1015.1 hPa | 0 mm | - | 1 W/m² | - |
| 1778118202 | 11.67° C | 54% | 1014.9 hPa | 0 mm | - | 1 W/m² | - |
| 1778117898 | 12.22° C | 53% | 1014.6 hPa | 0 mm | - | 3 W/m² | - |
| 1778117596 | 12.22° C | 53% | 1014.6 hPa | 0 mm | - | 5 W/m² | - |
| 1778117293 | 12.22° C | 53% | 1014.1 hPa | 0 mm | - | 8 W/m² | - |
| 1778116989 | 12.22° C | 52% | 1013.9 hPa | 0 mm | - | 12 W/m² | - |
| 1778116687 | 12.78° C | 51% | 1014 hPa | 0 mm | - | 16 W/m² | - |
| 1778116383 | 12.78° C | 50% | 1013.9 hPa | 0 mm | - | 21 W/m² | - |
| 1778116082 | 13.33° C | 50% | 1013.6 hPa | 0 mm | - | 26 W/m² | - |
| 1778115778 | 13.33° C | 50% | 1013.7 hPa | 0 mm | - | 36 W/m² | - |
* Rain latest hour (hover to see other rain measurements)
** Current wind speed in m/s (hover to see current wind gust speed)